Home   Weather   Krishnagiri   Past weeks

Flag for India Past Weather in Krishnagiri, Tamil Nadu, India — Yesterday and Last 2 Weeks

Now
79 °F

Clear.


Feels Like: 81 °F
Forecast: 75 / 96 °F
Wind: 3 mph from South

Location: Bangalore / Hindustan

Current Time: Apr 29, 2017 at 8:57:16 am

Latest Report: Apr 29, 2017 at 8:30 am


Visibility: 4 mi

Pressure: 30.04 "Hg

Humidity: 61%

Dew Point: 64 °F

Location of KrishnagiriLocation

Past Weather in Krishnagiri — Graph

°F

Krishnagiri Temperature Yesterday

Maximum temperature yesterday: 95 °F (at 3:30 pm)
Minimum temperature yesterday: 73 °F (at 11:30 pm)
Average temperature yesterday: 86 °F

High & Low Weather Summary for the Past Weeks

 TemperatureHumidityPressure
High97 °F (Apr 24, 2:30 pm)94% (Apr 23, 5:30 am)30.04 "Hg (Apr 23, 5:30 am)
Low72 °F (Apr 17, 6:00 am)14% (Apr 14, 4:30 pm)29.77 "Hg (Apr 15, 4:30 pm)
Average85 °F52%29.93 "Hg
* Reported Apr 14 7:30 am — Apr 29 8:00 am, Krishnagiri, Weather by CustomWeather, © 2017

Note: Actual official high and low records may vary slightly from our data, if they occured in-between our weather recording intervals... More about our weather records

Advertising

Krishnagiri Weather History for the Previous 24 Hours

Scroll right to see more
 ConditionsComfort  
Time TempWeatherWind HumidityBarometerVisibility
8:00 am
Sat, Apr 29
79 °FClear.No wind61%30.04 "Hg4 mi
7:30 am77 °FClear.No wind61%30.01 "Hg4 mi
7:00 am73 °FPassing clouds.3 mph74%30.01 "Hg4 mi
6:30 am72 °FPassing clouds.3 mph78%30.01 "Hg4 mi
6:00 am72 °FPassing clouds.6 mph73%29.98 "Hg4 mi
5:30 am73 °FPassing clouds.5 mph69%29.98 "Hg4 mi
11:30 pm
Fri, Apr 28
73 °FThunderstorms. Partly cloudy.9 mph74%30.01 "Hg4 mi
10:30 pm77 °FThunderstorms. Partly cloudy.9 mph61%30.01 "Hg4 mi
9:30 pm81 °FThunderstorms. Passing clouds.14 mph51%29.98 "Hg5 mi
8:30 pm86 °FPassing clouds.7 mph43%29.92 "HgN/A
7:30 pm90 °FPassing clouds.6 mph31%29.89 "HgN/A
6:30 pm90 °FScattered clouds.6 mph31%29.89 "HgN/A
5:30 pm93 °FScattered clouds.6 mph28%29.86 "HgN/A
5:00 pm93 °FScattered clouds.6 mph30%29.86 "HgN/A
4:30 pm93 °FScattered clouds.6 mph30%29.86 "HgN/A
4:00 pm95 °FScattered clouds.7 mph32%29.86 "HgN/A
3:30 pm95 °FScattered clouds.5 mph32%29.89 "HgN/A
3:00 pm93 °FScattered clouds.5 mph34%29.89 "HgN/A
2:30 pm93 °FScattered clouds.6 mph34%29.89 "HgN/A
2:00 pm93 °FScattered clouds.5 mph36%29.92 "HgN/A
1:00 pm91 °FPassing clouds.8 mph38%29.95 "HgN/A
12:30 pm91 °FPassing clouds.5 mph38%29.98 "HgN/A
12:00 pm90 °FPassing clouds.6 mph43%29.98 "HgN/A
11:30 am90 °FSunny.5 mph43%30.01 "Hg10 mi
11:00 am88 °FSunny.3 mph43%30.01 "Hg10 mi
10:30 am86 °FSunny.3 mph46%30.01 "Hg10 mi
10:00 am86 °FSunny.5 mph49%30.04 "Hg10 mi
9:30 am84 °FClear.5 mph48%30.04 "Hg5 mi
9:00 am82 °FClear.5 mph51%30.04 "Hg5 mi
8:30 am81 °FClear.3 mph54%30.04 "Hg4 mi
8:00 am79 °FClear.6 mph58%30.04 "Hg4 mi
Weather by CustomWeather, © 2017

See weather overviewHow to use our weather pages